User: anonymous   Login
Location: Unspecified
(0.0000°N, 0.0000°E)
Time: 12:50:57
(UTC+00:00)
Language:

MERIDIAN 7 - Orbit

View from above orbital plane
View from above orbital plane
View from above satellite
View from above satellite

Ground track
Ground track

The orbit data is extracted from the following two-line orbital elements,

1 40296U 14069A   17087.51876000 +.00000034 +00000-0 +00000-0 0  9998
2 40296 062.8125 253.6118 6993834 274.9121 028.8908 02.00595491017672
Epoch (UTC): 28 March 2017 12:27:00
Eccentricity: 0.6993834
inclination: 62.8125°
perigee height: 1605 km
apogee height: 38753 km
right ascension of ascending node: 253.6118°
argument of perigee: 274.9121°
revolutions per day: 2.00595491
mean anomaly at epoch: 28.8908°
orbit number at epoch: 1767

The dashed part of the orbit path shows where the satellite is in the earth's shadow,  

DLR